Regional Weather Roundup
Issued by NWS

Home | Current Version | Previous Version | Text Only | Print | Product List | Glossary Off
Versions: 1 2 3 4 5 6 7 8 9 10 11 12 13 14 15 16 17 18 19 20 21 22 23 24 25 26 27 28 29 30 31 32 33 34 35 36 37 38 39 40 41 42 43 44 45 46 47 48 49 50

000
ASUS43 KIND 022109
RWRIN

WEATHER ROUNDUP FOR INDIANA
NATIONAL WEATHER SERVICE INDIANAPOLIS IN
500 PM EDT THU JUL 02 2015

NOTE: "FAIR" INDICATES FEW OR NO CLOUDS BELOW 12,000 FEET WITH NO
SIGNIFICANT WEATHER AND/OR OBSTRUCTIONS TO VISIBILITY.

* - STATION DOES NOT REPORT WEATHER SUCH AS PRECIPITATION OR FOG.

+ - STATION NOT QUALITY CONTROLLED BY THE NATIONAL WEATHER SERVICE.
    USE DATA WITH CAUTION...ESPECIALLY DEWPOINT AND RELATIVE
    HUMIDITY OBSERVATIONS.

INZ001>003-010>013-019-020-022200-
NORTHWEST INDIANA

CITY           SKY/WX    TMP DP  RH WIND       PRES   REMARKS
GARY /AIRPORT/ PTSUNNY   66  59  77 N16       29.98F
KNOX *+        MOSUNNY   73  54  49 E10       29.94S
LA PORTE +     PTSUNNY   74  57  54 E8        29.96S
MICHIGAN CITY+ MOSUNNY   70  57  64 N10       29.96F
MONTICELLO +   MOSUNNY   76  61  59 NE8       29.91F
RENSSELAER +   MOSUNNY   73  55  53 NE12      29.94S
VALPARAISO     PTSUNNY   73  60  63 N9        29.96S

$$

LMZ046-743>745-022200-
SOUTHERN LAKE MICHIGAN

STATION/POSITION TIME  TEMP    WIND        PRES    WAVE
                       AIR SEA DIR/SP/G            HT
                 (UTC) (F)     (DEG/KT/KT) (MB)    (FT)
BURNS HARBOR     2100   61      10/ 14/ 16 1015.6S
MICHIGAN CITY    2100   63     350/ 14/ 15   N/A
5NW MICH CITY    2100   64 64   20/ 14/ 17   N/A     4

$$

INZ004-005-014>016-021>024-022200-
NORTH CENTRAL INDIANA

CITY           SKY/WX    TMP DP  RH WIND       PRES   REMARKS
ELKHART        PTSUNNY   73  54  49 E10       29.97S
GOSHEN         MOSUNNY   74  56  53 E6        29.96S
LOGANSPORT +   PTSUNNY   73  55  53 NE6       29.93F
PERU/GRISSOM   PTSUNNY   75  63  64 NE13      29.91F
ROCHESTER +    MOSUNNY   79  55  44 E9        29.94F
SOUTH BEND     PTSUNNY   75  55  49 NE10G20   29.96F
WARSAW +         N/A     72  55  56 E7        29.95F

$$

INZ006>009-017-018-025>027-022200-
NORTHEAST INDIANA

CITY           SKY/WX    TMP DP  RH WIND       PRES   REMARKS
ANGOLA *+        N/A     73  64  73 E8        29.97F
AUBURN +       MOSUNNY   73  52  46 E3        29.97S
FORT WAYNE     PTSUNNY   76  57  51 E13       29.94F
HUNTINGTON +   MOSUNNY   75  60  58 NE5       29.93F

$$

INZ028-029-035-036-043>045-051>053-022200-
WEST CENTRAL INDIANA

CITY           SKY/WX    TMP DP  RH WIND       PRES   REMARKS
CRAWFORDSVL +  PTSUNNY   76  59  55 NE10      29.89F
GREENCASTLE +  PTSUNNY   79  61  53 NE7       29.88F
LAFAYETTE      MOSUNNY   75  62  64 NE13      29.91R
TERRE HAUTE    PTSUNNY   78  66  66 NE6       29.87F

$$

INZ030>032-037>040-046>048-054>057-064-065-022200-
CENTRAL INDIANA

CITY           SKY/WX    TMP DP  RH WIND       PRES   REMARKS
CP ATTERBURY + CLOUDY    75  66  73 NE6       29.87F
COLUMBUS       CLOUDY    77  66  69 N12       29.86F
FRANKFORT +    MOSUNNY   76  66  69 NE12      29.93S
GREENWOOD *+   MOSUNNY   79  63  57 NE9       29.88F
INDIANAPOLIS   PTSUNNY   78  63  59 NE15G21   29.86F
-EAGLE CREEK   PTSUNNY   77  63  61 NE9       29.88F
KOKOMO *+      PTSUNNY   75  63  64 E14       29.91F
MARION +       MOSUNNY   75  61  62 NE9G17    29.92F
MT COMFORT *+  MOSUNNY   79  57  47 NE10      29.89F
SHELBYVILLE    PTSUNNY   80  66  62 E9        29.87F
ZIONSVILLE +   PTSUNNY   78  62  58 NE9       29.91S

$$

INZ033-034-041-042-049-050-058-059-022200-
EAST CENTRAL INDIANA

CITY           SKY/WX    TMP DP  RH WIND       PRES   REMARKS
MUNCIE         PTSUNNY   75  63  66 NE13      29.91F

$$

INZ060-061-067>069-081>083-085>088-022200-
SOUTHWEST INDIANA

CITY           SKY/WX    TMP DP  RH WIND       PRES   REMARKS
EVANSVILLE     CLOUDY    80  69  69 NE8       29.84F
HUNTINGBURG *+ PTSUNNY   79  70  73 CALM      29.85S
WASHINGTON +   CLOUDY    77  69  75 N6        29.85S

$$

INZ062-063-066-070>080-084-089>092-022200-
SOUTH CENTRAL AND SOUTHEAST INDIANA

CITY           SKY/WX    TMP DP  RH WIND       PRES   REMARKS
BLOOMINGTON    CLOUDY    78  67  68 NE9       29.87F
MADISON *+     PTSUNNY   75  68  78 CALM      29.88S
NORTH VERNON + CLOUDY    77  73  88 S3        29.87S
SEYMOUR +      CLOUDY    79  70  73 SE5       29.85F

$$



USA.gov is the U.S. government's official web portal to all federal, state and local government web resources and services.